Weather History for EDQM - October, 2011

Change the Weather History Date:

Thursday, October 27, 2011

  Actual Average Record
Temperature  
Mean Temperature 44 °F -  
Max Temperature 48 °F 47 °F 61 °F (2013)
Min Temperature 40 °F 38 °F 24 °F (1997)
Degree Days  
Heating Degree Days 21    
Moisture  
Dew Point 44 °F    
Average Humidity 91    
Maximum Humidity 100    
Minimum Humidity 86    
Precipitation  
Precipitation 0.00 in - - ()
Sea Level Pressure  
Sea Level Pressure 30.08 in    
Wind  
Wind Speed 4 mph ()    
Max Wind Speed 9 mph    
Max Gust Speed -    
Visibility 3.4 miles    
Events Fog    
Averages and records for this station are not official NWS values.
T = Trace of Precipitation, MM = Missing Value Source: Averaged Metar Reports

Daily Weather History Graph

Daily Weather History Graph

Search for Another Location

Airport or City:

Trip Planner

Search our weather history database for the weather conditions in past years. The results will help you decide how hot, cold, wet, or windy it might be!

Date:

Astronomy

Oct. 27, 2011 Rise Set
Actual Time 7:53 AM CEST 5:58 PM CEST
Civil Twilight 7:20 AM CEST 6:32 PM CEST
Nautical Twilight 6:41 AM CEST 7:10 PM CEST
Astronomical Twilight 6:04 AM CEST 7:47 PM CEST
Moon 8:46 AM CEST (10/27) 6:00 PM CEST (10/27)
Length of Visible Light 11h 11m
Length of Day
10h 04m
New Moon, 1% of the Moon is Illuminated
Oct 27
New Moon
Nov 2
First Quarter
Nov 10
Full
Nov 18
Last Quarter
Nov 25
New

Hourly Weather History & Observations

Time (CEST) Temp. Windchill Dew Point Humidity Pressure Visibility Wind Dir Wind Speed Gust Speed Precip Events Conditions
12:00 AM 42 °F - 41 °F 97% 30.12 in 0 mi East 2.2 mph - - Fog Fog
12:20 AM 41.0 °F - 39.2 °F 93% 30.09 in 0.0 mi Variable 1.2 mph - N/A Fog Fog
12:50 AM 41.0 °F - 39.2 °F 93% 30.09 in 0.0 mi ESE 2.3 mph - N/A   Scattered Clouds
1:00 AM 40 °F - 40 °F 100% 30.13 in 0 mi SE 4.5 mph - - Fog Fog
1:20 AM 42.8 °F 41.1 °F 41.0 °F 93% 30.09 in 0.2 mi SE 3.5 mph - N/A Fog Fog
1:50 AM 42.8 °F - 41.0 °F 93% 30.09 in 0.4 mi Calm Calm - N/A Fog Fog
2:00 AM 41 °F - 41 °F 100% 30.13 in 0 mi South 2.2 mph - - Fog Fog
2:20 AM 44.6 °F 43.1 °F 42.8 °F 93% 30.09 in 1.6 mi East 3.5 mph - N/A   Overcast
2:50 AM 44.6 °F 43.1 °F 42.8 °F 93% 30.09 in - ESE 3.5 mph - N/A   Overcast
3:00 AM 44 °F - 44 °F 99% 30.12 in 1 mi East 2.2 mph - - Fog Fog
3:20 AM 44.6 °F - 42.8 °F 93% 30.09 in 1.6 mi Variable 1.2 mph - N/A   Overcast
3:50 AM 44.6 °F - 42.8 °F 93% 30.09 in 1.8 mi Variable 2.3 mph - N/A   Overcast
4:00 AM 44 °F - 44 °F 100% 30.11 in 2 mi East 2.2 mph - -   Mist
4:20 AM 46.4 °F - 44.6 °F 93% 30.09 in 2.2 mi Variable 2.3 mph - N/A   Overcast
4:50 AM 46.4 °F 44.3 °F 44.6 °F 93% 30.09 in - NNE 4.6 mph - N/A   Overcast
5:20 AM 46.4 °F 45.2 °F 44.6 °F 93% 30.09 in 2.2 mi ENE 3.5 mph - N/A   Overcast
5:50 AM 46.4 °F - 44.6 °F 93% 30.06 in - ENE 2.3 mph - N/A   Overcast
6:00 AM 46 °F - 46 °F 99% 30.09 in 2 mi East 2.2 mph - -   Mist
6:20 AM 46.4 °F 45.2 °F 44.6 °F 93% 30.06 in 1.7 mi East 3.5 mph - N/A   Overcast
6:50 AM 46.4 °F - 44.6 °F 93% 30.06 in 1.6 mi East 2.3 mph - N/A   Overcast
7:00 AM 47 °F - 46 °F 96% 30.09 in 2 mi East 2.2 mph - -   Mist
7:20 AM 46.4 °F 43.5 °F 44.6 °F 93% 30.06 in 2.5 mi East 5.8 mph - N/A   Overcast
7:50 AM 46.4 °F 42.9 °F 44.6 °F 93% 30.06 in 3.7 mi East 6.9 mph - N/A   Overcast
8:00 AM 47 °F - 46 °F 92% 30.09 in 6 mi ESE 8.9 mph - -   Partly Cloudy
8:20 AM 46.4 °F 43.5 °F 44.6 °F 93% 30.06 in 3.7 mi East 5.8 mph - N/A   Overcast
8:50 AM 46.4 °F 42.9 °F 44.6 °F 93% 30.06 in 5.0 mi ESE 6.9 mph - N/A   Overcast
9:00 AM 47 °F - 46 °F 92% 30.08 in 7 mi ESE 6.7 mph - -   Overcast
9:20 AM 46.4 °F 42.9 °F 44.6 °F 93% 30.06 in 5.6 mi ESE 6.9 mph - N/A   Overcast
10:00 AM 47 °F - 45 °F 90% 30.08 in 7 mi ESE 8.9 mph - -   Overcast
10:20 AM 46.4 °F 42.9 °F 44.6 °F 93% 30.06 in 6.2 mi ESE 6.9 mph - N/A   Mostly Cloudy
10:50 AM 46.4 °F 41.9 °F 44.6 °F 93% 30.06 in 6.2 mi ESE 9.2 mph - N/A   Mostly Cloudy
11:20 AM 46.4 °F 42.9 °F 44.6 °F 93% 30.06 in 5.6 mi ESE 6.9 mph - N/A   Mostly Cloudy
11:50 AM 48.2 °F - 44.6 °F 87% 30.06 in 4.3 mi ESE 8.1 mph - N/A   Mostly Cloudy
12:00 PM 48 °F - 46 °F 88% 30.07 in 5 mi SE 6.7 mph - -   Overcast
12:20 PM 48.2 °F - 44.6 °F 87% 30.06 in 5.0 mi SE 5.8 mph - N/A   Mostly Cloudy
12:50 PM 48.2 °F - 44.6 °F 87% 30.06 in 5.0 mi ESE 8.1 mph - N/A   Mostly Cloudy
1:00 PM 48 °F - 46 °F 88% 30.07 in 6 mi SE 6.7 mph - -   Overcast
1:20 PM 48.2 °F - 44.6 °F 87% 30.06 in 3.7 mi ESE 5.8 mph - N/A   Overcast
1:50 PM 48.2 °F - 44.6 °F 87% 30.06 in 5.0 mi ESE 6.9 mph - N/A   Overcast
2:00 PM 48 °F - 46 °F 88% 30.06 in 6 mi ESE 6.7 mph - -   Overcast
2:20 PM 48.2 °F - 44.6 °F 87% 30.04 in 4.3 mi ESE 5.8 mph - N/A   Mostly Cloudy
2:50 PM 48.2 °F - 44.6 °F 87% 30.04 in 3.7 mi East 6.9 mph - N/A   Mostly Cloudy
3:00 PM 48 °F - 45 °F 87% 30.04 in 6 mi ESE 8.9 mph - -   Overcast
3:20 PM 48.2 °F - 44.6 °F 87% 30.04 in 4.3 mi ESE 6.9 mph - N/A   Mostly Cloudy
3:50 PM 46.4 °F 42.4 °F 44.6 °F 93% 30.04 in 3.7 mi East 8.1 mph - N/A   Overcast
4:00 PM 47 °F - 44 °F 87% 30.05 in 4 mi ESE 8.9 mph - -   Mist
4:20 PM 46.4 °F 43.5 °F 42.8 °F 87% 30.04 in 3.7 mi ESE 5.8 mph - N/A   Overcast
4:50 PM 46.4 °F 43.5 °F 42.8 °F 87% 30.06 in 3.1 mi ESE 5.8 mph - N/A   Overcast
5:20 PM 46.4 °F 44.3 °F 42.8 °F 87% 30.06 in 3.7 mi ESE 4.6 mph - N/A   Overcast
5:50 PM 46.4 °F 43.5 °F 42.8 °F 87% 30.06 in 3.7 mi ESE 5.8 mph - N/A   Overcast
6:00 PM 47 °F - 44 °F 86% 30.08 in 4 mi ESE 4.5 mph - -   Mist
6:20 PM 46.4 °F 42.9 °F 42.8 °F 87% 30.06 in 3.7 mi ESE 6.9 mph - N/A   Overcast
6:50 PM 46.4 °F 42.9 °F 42.8 °F 87% 30.06 in - East 6.9 mph - N/A   Overcast
7:00 PM 46 °F - 44 °F 89% 30.08 in 4 mi East 8.9 mph - -   Mist
7:20 PM 44.6 °F 41.4 °F 42.8 °F 93% 30.06 in - ESE 5.8 mph - N/A   Overcast
7:50 PM 44.6 °F 41.4 °F 42.8 °F 93% 30.06 in - ESE 5.8 mph - N/A   Overcast
8:00 PM 46 °F - 44 °F 88% 30.09 in 3 mi ESE 6.7 mph - -   Mist
8:20 PM 44.6 °F 41.4 °F 42.8 °F 93% 30.09 in 2.5 mi SE 5.8 mph - N/A   Overcast
8:50 PM 44.6 °F 40.7 °F 42.8 °F 93% 30.09 in - SSE 6.9 mph - N/A   Overcast
9:00 PM 45 °F - 44 °F 93% 30.10 in 3 mi SSE 4.5 mph - -   Mist
9:20 PM 44.6 °F 40.7 °F 42.8 °F 93% 30.09 in - SSE 6.9 mph - N/A   Overcast
9:50 PM 44.6 °F 40.7 °F 42.8 °F 93% 30.09 in 3.1 mi SSE 6.9 mph - N/A   Overcast
10:00 PM 45 °F - 43 °F 90% 30.11 in 3 mi SSE 6.7 mph - -   Mist
10:20 PM 44.6 °F 41.4 °F 41.0 °F 87% 30.09 in - SSE 5.8 mph - N/A   Overcast
10:50 PM 44.6 °F 41.4 °F 41.0 °F 87% 30.09 in - SE 5.8 mph - N/A   Overcast
11:20 PM 44.6 °F 40.7 °F 41.0 °F 87% 30.09 in - SSE 6.9 mph - N/A   Overcast
11:50 PM 44.6 °F 40.7 °F 41.0 °F 87% 30.12 in - SSE 6.9 mph - N/A   Overcast